This is the latest recevied weather packets stored in our database for station/object KM4NDN. If no packets are shown the sender has not sent any weather packets the latest 10 day(s).
| Time | Temp. | Humidity | Pressure | Rain* | Wind** | Luminosity | Snow |
|---|---|---|---|---|---|---|---|
| 1777644227 | 5.56° C | 90% | 1010.9 hPa | 0 mm | - | 77 W/m² | - |
| 1777643923 | 5.56° C | 91% | 1010.9 hPa | 0 mm | - | 61 W/m² | - |
| 1777643621 | 5.56° C | 91% | 1011.3 hPa | 0 mm | - | 48 W/m² | - |
| 1777643318 | 5.56° C | 91% | 1011 hPa | 1.78 mm | - | 61 W/m² | - |
| 1777643014 | 5.56° C | 92% | 1011.2 hPa | 1.78 mm | - | 75 W/m² | - |
| 1777642711 | 5.56° C | 92% | 1011 hPa | 0 mm | - | 65 W/m² | - |
| 1777642408 | 5.56° C | 91% | 1011.2 hPa | 0 mm | - | 70 W/m² | - |
| 1777642104 | 5.56° C | 91% | 1011.3 hPa | 0 mm | - | 64 W/m² | - |
| 1777641800 | 5.56° C | 92% | 1011.3 hPa | 0 mm | - | 63 W/m² | - |
| 1777641495 | 5.56° C | 92% | 1011.3 hPa | 1.27 mm | - | 102 W/m² | - |
| 1777641191 | 5.56° C | 92% | 1011.2 hPa | 1.27 mm | - | 93 W/m² | - |
| 1777640888 | 5.56° C | 92% | 1011.2 hPa | 1.78 mm | - | 90 W/m² | - |
| 1777640585 | 5.56° C | 93% | 1011.2 hPa | 3.05 mm | - | 56 W/m² | - |
| 1777640281 | 5.56° C | 93% | 1011.5 hPa | 1.27 mm | - | 31 W/m² | - |
| 1777639977 | 5.56° C | 93% | 1011.2 hPa | 1.78 mm | - | 34 W/m² | - |
| 1777639674 | 5.56° C | 93% | 1011.4 hPa | 1.78 mm | - | 22 W/m² | - |
| 1777639373 | 5.56° C | 93% | 1011.3 hPa | 1.27 mm | - | 22 W/m² | - |
| 1777639067 | 5.56° C | 93% | 1011 hPa | 1.27 mm | - | 19 W/m² | - |
| 1777638765 | 5.56° C | 93% | 1011 hPa | 1.78 mm | - | 34 W/m² | - |
| 1777638460 | 5.56° C | 93% | 1011.2 hPa | 1.78 mm | - | 47 W/m² | - |
| 1777638158 | 5.56° C | 93% | 1011.3 hPa | 0 mm | - | 17 W/m² | - |
| 1777637858 | 5.56° C | 93% | 1011.2 hPa | 0 mm | - | 17 W/m² | - |
| 1777637555 | 5.56° C | 93% | 1010.8 hPa | 0 mm | - | 16 W/m² | - |
| 1777637253 | 5.56° C | 93% | 1011 hPa | 0 mm | - | 15 W/m² | - |
| 1777636950 | 5.56° C | 93% | 1011.2 hPa | 0 mm | - | 15 W/m² | - |
* Rain latest hour (hover to see other rain measurements)
** Current wind speed in m/s (hover to see current wind gust speed)